Location: Unnamed
(48.6007°N, 2.4808°E)
Time: 13:54:37
(UTC+02:00)

VELOX 1 - Pass Details

Date: 26 March 2023
Orbit: 617 x 630 km, 98.4° (Epoch: 30 May)

Event Time Altitude Azimuth Distance (km) Brightness Sun altitude
Rises 07:01:27 0° 159° (SSE) 2,907 ? -7.4°
Reaches altitude 10° 07:03:38 10° 158° (SSE) 2,002 ? -7.0°
Maximum altitude 07:07:59 75° 74° (ENE) 654 ? -6.3°
Drops below altitude 10° 07:12:20 10° 349° (N) 2,009 ? -5.6°
Sets 07:14:32 0° 348° (NNW) 2,919 ? -5.2°
